1998-067PN (43638 NORAD) Tracking and Keplerian Element Data

This shows tracking and keplerian element data for the satellite.

Feedback or suggestion? Click here.




ElementValue
Catalog43638
Name1998-067PN
Epoch Orbit3083
Epoch Day112.75919195
Epoch Year2019
RAAN273.3315
Inclination51.6383
Eccentricity0.0002618
Argument of Perigee239.5674
Mean Anonmoly120.506
Mean Motion15.57145698
Decay Rate7.351E-05
L11 43638U 98067PN 19112.75919195 .00007351 00000-0 10597-3 0 9995
L22 43638 51.6383 273.3315 0002618 239.5674 120.5060 15.57145698 30838

Live tracking and technical data element details for 1998-067PN (NORAD 43638). 1998-067PN can be tracked NOW for your location showing map with azimuth and elevation plus other details from your city location.

Track the satellite on the map from your city or location and see movement details for azimuth, elevation, latitude, longitude, range, height, and movement on the map or in text.







IsCatalogInMostPopularTable: catalog: 43638, numindb: 107
Update: records affected: 1



GetName: 43638 1998-067PN

Hit Count: updated at: Tue, 23 Apr 2019 20:44:28 GMT